Regional Weather Roundup
Issued by NWS Upton, NY

Current Version | Previous Version | Text Only | Print | Product List | Glossary On
Versions: 1 2 3 4 5 6 7 8 9 10 11 12 13 14 15 16 17 18 19 20 21 22 23 24 25 26 27 28 29 30 31 32 33 34 35 36 37 38 39 40 41 42 43 44 45 46 47 48 49 50
000
ASUS41 KOKX 311405
RWROKX

REGIONAL WEATHER ROUNDUP
NATIONAL WEATHER SERVICE NEW YORK NY
1000 AM EDT THU JUL 31 2014

NOTE: "FAIR" INDICATES FEW OR NO CLOUDS BELOW 12,000 FEET WITH NO
SIGNIFICANT WEATHER AND/OR OBSTRUCTIONS TO VISIBILITY.

NYZ071-072-176-178-NJZ106-104-311500-
NEW YORK CITY METRO AREA


CITY           SKY/WX    TMP DP  RH WIND       PRES   REMARKS
CENTRAL PARK   PTSUNNY   72  57  59 SW6       30.13F
LAGUARDIA APRT CLOUDY    75  56  51 VRB7      30.10S
KENNEDY INTL   PTSUNNY   76  58  53 SW10      30.12S
NEWARK/LIBERTY PTSUNNY   74  58  57 S9        30.10F
BRNX BOT. GARD   N/A     72  59  64 SW5       30.11F
TETERBORO      PTSUNNY   74  60  61 S8        30.09F
$$

NYZ177-179-078>081-311500-
LONG ISLAND NEW YORK

CITY           SKY/WX    TMP DP  RH WIND       PRES   REMARKS
FARMINGDALE    SUNNY     76  54  46 SW9       30.11S
ISLIP          MOSUNNY   78  55  44 SW12      30.10S
SHIRLEY        SUNNY     76  56  49 SW12      30.12S
WESTHAMPTON    SUNNY     77  59  53 SW9       30.13S
MONTAUK POINT    N/A     77  61  57 VRB5      30.13R
$$

NYZ052-065-067-311500-
HUDSON VALLEY

CITY           SKY/WX    TMP DP  RH WIND       PRES   REMARKS
WHITE PLAINS   PTSUNNY   69  59  70 VRB3      30.11S
NEWBURGH       PTSUNNY   68  59  73 SW6       30.10F
MONTGOMERY       N/A     69  59  70 SW5       30.09S
POUGHKEEPSIE   PTSUNNY   67  61  81 S6        30.08S
ALBANY         CLOUDY    64  58  80 S9        30.07S
$$

NJZ001-105-106-008-010-013-015-019>022-104-311500-
NEW JERSEY

CITY           SKY/WX    TMP DP  RH WIND       PRES   REMARKS
NEWARK/LIBERTY PTSUNNY   74  58  57 S9        30.10F
TETERBORO      PTSUNNY   74  60  61 S8        30.09F
CALDWELL       PTSUNNY   69  59  70 VRB3      30.11S
MORRISTOWN     MOSUNNY   73  61  64 SW7       30.11F
SOMERVILLE     SUNNY     72  61  68 S6        30.09S
LINDEN         FAIR      76  58  53 W7        30.12S
SUSSEX         MOSUNNY   72  60  66 SW3       30.09F
ANDOVER          N/A     70  58  65 VRB7      30.10F
TRENTON        SUNNY     73  61  65 S8        30.10F
MILLVILLE      SUNNY     76  63  64 SW8       30.12F
ATLANTIC CITY  SUNNY     76  63  64 SW9       30.12F
WRIGHTSTOWN    PTSUNNY   74  62  66 SW9       30.09F
TOMS RIVER     PTSUNNY   77  57  50 SW8       30.12F
BELMAR         MOSUNNY   73  57  56 SW8       30.11F
$$

PAZ047>061-062-071-311500-
EASTERN PENNSYLVANIA

CITY           SKY/WX    TMP DP  RH WIND       PRES   REMARKS
PHILADELPHIA   MOSUNNY   76  62  62 SW9       30.11S
ALLENTOWN      SUNNY     73  59  61 SW7       30.10S
SCRANTON       MOSUNNY   69  58  67 VRB7      30.09S
$$

CTZ002-004>006-009-010-012-RIZ004-006-007-MAZ004-011-015-311500-
SOUTHERN NEW ENGLAND
 IN CT

CITY           SKY/WX    TMP DP  RH WIND       PRES   REMARKS
BRADLEY INTL   PTSUNNY   73  58  59 S8        30.08F
HARTFORD       MOSUNNY   75  58  55 VRB7      30.08F
DANBURY        CLOUDY    67  57  70 W8        30.12S
WTRBRY/OXFORD  PTSUNNY   72  59  64 W6        30.13F
BRIDGEPORT     MOSUNNY   75  61  61 SW10      30.11R
MERIDEN        MOSUNNY   76  57  51 SW8       30.10S
NEW HAVEN      MOSUNNY   74  63  68 VRB7      30.11R
CHESTER        FAIR      73  59  60 SW8       30.12R
GROTON         SUNNY     73  66  78 SW8       30.10S
WILLIMANTIC    SUNNY     74  60  61 S7        30.10F

 IN RI

CITY           SKY/WX    TMP DP  RH WIND       PRES   REMARKS
PROVIDENCE     MOSUNNY   76  60  57 S6        30.11S
BLOCK ISLAND   SUNNY     73  63  68 SW7       30.13R
WESTERLY       SUNNY     75  63  66 W7        30.12S

 IN MA

CITY           SKY/WX    TMP DP  RH WIND       PRES   REMARKS
BOSTON         MOSUNNY   75  59  57 SW8       30.09F
WORCESTER      MOSUNNY   70  58  65 SW9       30.12S
WESTFIELD      PTSUNNY   67  58  72 S3        30.09S
PROVINCETOWN   SUNNY     73  64  73 S10       30.12S
NANTUCKET      SUNNY     70  63  78 S8        30.14S
$$

ANZ330-335-338-340-345-350-353-355-311500-
COASTAL MARINE OBSERVATIONS


STATION/POSITION TIME  SKY/WX   TEMP    WIND        PRES    VSBY  WAVE
                                AIR SEA DIR/SP/G                  HT/PER
                 (UTC)          (F)     (DEG/KT/KT) (MB)    (MI)  (FT/S)
NY HARB ENTRANCE NOT AVBL
4S FIRE IS       NOT AVBL
23SW MTP         1400            71 70              1019.5          3/ 9
HUDSON CANYON    1400            73 74  260/  6/  8 1020.3          4/ 8
EXECUTION ROCKS  1400            75 70  240/ 10/ 16   N/A
WESTERN LI SOUND 1400            72     230/ 10/ 10   N/A           0
CENTRAL LI SOUND 1300            71 72  220/  8/ 10   N/A           1
EASTERN LI SOUND 1300            74 69  260/  4/  6   N/A
ROBBINS REEF     1400            72     230/  8/ 13   N/A
$$


>>>>>>>>>>>>>>>>>>>>>>>>>>>> KEY <<<<<<<<<<<<<<<<<<<<<<<<<<<
>                                                          <
>     SKY/WX - SKY CONDITION/PRESENT WEATHER               <
>     TMP    - TEMPERATURE IN FAHRENHEIT                   <
>     DP     - DEWPOINT IN FAHRENHEIT                      <
>     RH     - RELATIVE HUMIDITY IN PERCENT                <
>     WIND   - DIRECTION AND SPEED IN MPH                  <
>     PRES   - MEAN SEA LEVEL PRESSURE IN INCHES OF HG     <
>     WCI    - WIND CHILL INDEX                            <
>     VSB    - VISIBILITY IN MILES                         <
>     HX     - HEAT INDEX                                  <
>     TC     - TEMPERATURE IN CELSIUS                      <
>     VRB    - VARIABLE WIND DIRECTION                     <
>                                                          <
>>>>>>>>>>>>>>>>>>>>>>>>>>>> KEY <<<<<<<<<<<<<<<<<<<<<<<<<<<





USA.gov is the U.S. government's official web portal to all federal, state and local government web resources and services.